This is the latest recevied weather packets stored in our database for station/object KD2ZLA. If no packets are shown the sender has not sent any weather packets the latest 10 day(s).
| Time | Temp. | Humidity | Pressure | Rain* | Wind** | Luminosity | Snow |
|---|---|---|---|---|---|---|---|
| 1777855621 | 10° C | 42% | 1007.5 hPa | 0 mm | - | 0 W/m² | - |
| 1777855317 | 10° C | 41% | 1007.6 hPa | 0 mm | - | 0 W/m² | - |
| 1777855014 | 10° C | 42% | 1007.6 hPa | 0 mm | - | 0 W/m² | - |
| 1777854711 | 10° C | 42% | 1007.4 hPa | 0 mm | - | 0 W/m² | - |
| 1777854407 | 10° C | 41% | 1007.4 hPa | 0 mm | - | 0 W/m² | - |
| 1777854105 | 10° C | 41% | 1007.4 hPa | 0 mm | - | 0 W/m² | - |
| 1777853803 | 10.56° C | 41% | 1007.5 hPa | 0 mm | - | 1 W/m² | - |
| 1777853498 | 10° C | 40% | 1007.6 hPa | 0 mm | - | 1 W/m² | - |
| 1777853196 | 10.56° C | 41% | 1007.6 hPa | 0 mm | - | 3 W/m² | - |
| 1777852893 | 10.56° C | 40% | 1007.5 hPa | 0 mm | - | 6 W/m² | - |
| 1777852591 | 10.56° C | 40% | 1007.4 hPa | 0 mm | - | 9 W/m² | - |
| 1777852288 | 10.56° C | 40% | 1007.4 hPa | 0 mm | - | 15 W/m² | - |
| 1777851986 | 10.56° C | 40% | 1007.3 hPa | 0 mm | - | 25 W/m² | - |
| 1777851684 | 10.56° C | 40% | 1007.4 hPa | 0 mm | - | 35 W/m² | - |
| 1777851381 | 10.56° C | 39% | 1007.1 hPa | 0 mm | - | 40 W/m² | - |
| 1777851076 | 11.11° C | 39% | 1007.4 hPa | 0 mm | - | 49 W/m² | - |
| 1777850773 | 11.11° C | 40% | 1007.5 hPa | 0 mm | - | 56 W/m² | - |
| 1777850470 | 11.11° C | 39% | 1007.4 hPa | 0 mm | - | 59 W/m² | - |
| 1777850169 | 11.11° C | 40% | 1007.4 hPa | 0 mm | - | 60 W/m² | - |
| 1777849865 | 10.56° C | 40% | 1007.6 hPa | 0 mm | - | 60 W/m² | - |
| 1777849562 | 11.11° C | 39% | 1007.6 hPa | 0 mm | - | 50 W/m² | - |
| 1777849259 | 11.11° C | 40% | 1007.4 hPa | 0 mm | - | 84 W/m² | - |
| 1777848956 | 11.11° C | 39% | 1007.4 hPa | 0 mm | - | 55 W/m² | - |
| 1777848651 | 11.11° C | 40% | 1007.6 hPa | 0 mm | - | 57 W/m² | - |
| 1777848349 | 11.11° C | 40% | 1007.4 hPa | 0 mm | - | 63 W/m² | - |
* Rain latest hour (hover to see other rain measurements)
** Current wind speed in m/s (hover to see current wind gust speed)